TimeCDT,TemperatureF,Dew PointF,Humidity,Sea Level PressureIn,VisibilityMPH,Wind Direction,Wind SpeedMPH,Gust SpeedMPH,PrecipitationIn,Events,Conditions,WindDirDegrees,DateUTC
12:58 AM,77.4,70.2,78,29.99,10.0,Calm,Calm,-,N/A,,Mostly Cloudy,0,2013-06-19 05:58:00
1:58 AM,76.8,69.6,78,29.97,10.0,North,4.6,-,N/A,,Clear,10,2013-06-19 06:58:00
2:58 AM,74.7,69.4,84,29.95,10.0,ENE,3.5,-,N/A,,Clear,70,2013-06-19 07:58:00
3:58 AM,75.2,69.6,83,29.95,10.0,Calm,Calm,-,N/A,,Clear,0,2013-06-19 08:58:00
4:58 AM,74.5,69.8,85,29.96,10.0,Calm,Calm,-,N/A,,Clear,0,2013-06-19 09:58:00
5:58 AM,75.9,70.7,84,29.98,10.0,Calm,Calm,-,N/A,,Mostly Cloudy,0,2013-06-19 10:58:00
6:58 AM,77.7,73.2,86,29.99,10.0,Calm,Calm,-,N/A,,Mostly Cloudy,0,2013-06-19 11:58:00
7:58 AM,81.9,73.6,76,30.01,10.0,WSW,4.6,-,N/A,,Scattered Clouds,250,2013-06-19 12:58:00
8:58 AM,84.4,74.3,72,30.02,10.0,Variable,2.3,-,N/A,,Scattered Clouds,0,2013-06-19 13:58:00
9:58 AM,84.7,73.9,70,30.03,10.0,Variable,4.6,-,N/A,,Mostly Cloudy,0,2013-06-19 14:58:00
10:58 AM,84.4,73.9,71,30.04,10.0,Variable,5.8,-,N/A,,Scattered Clouds,0,2013-06-19 15:58:00
11:58 AM,85.6,72.5,65,30.03,10.0,Variable,1.2,-,N/A,,Mostly Cloudy,0,2013-06-19 16:58:00
12:58 PM,84.9,72.3,66,30.03,10.0,Variable,4.6,-,N/A,,Mostly Cloudy,0,2013-06-19 17:58:00
1:58 PM,87.6,71.1,58,30.02,10.0,Variable,4.6,-,N/A,,Mostly Cloudy,0,2013-06-19 18:58:00
2:58 PM,86.2,70.5,59,30.01,10.0,Variable,2.3,-,N/A,,Partly Cloudy,0,2013-06-19 19:58:00
3:58 PM,86.9,70.3,58,29.99,10.0,NW,5.8,-,N/A,,Partly Cloudy,310,2013-06-19 20:58:00
4:58 PM,87.8,71.1,57,29.99,10.0,Variable,2.3,-,N/A,,Scattered Clouds,0,2013-06-19 21:58:00
5:58 PM,87.4,70.9,58,29.99,10.0,WNW,3.5,-,N/A,,Mostly Cloudy,290,2013-06-19 22:58:00
6:58 PM,85.5,71.4,63,30.00,10.0,NW,4.6,-,N/A,,Mostly Cloudy,310,2013-06-19 23:58:00
7:58 PM,84.7,71.8,65,30.00,10.0,WNW,4.6,-,N/A,,Mostly Cloudy,300,2013-06-20 00:58:00
8:58 PM,82.9,72.0,69,30.02,10.0,NW,2.3,-,N/A,,Clear,320,2013-06-20 01:58:00
9:58 PM,81.0,71.4,73,30.02,10.0,NW,2.3,-,N/A,,Clear,310,2013-06-20 02:58:00
10:58 PM,80.1,73.9,81,30.04,10.0,NE,2.3,-,N/A,,Overcast,40,2013-06-20 03:58:00
11:58 PM,80.2,73.9,81,30.05,10.0,NNW,3.5,-,N/A,,Clear,330,2013-06-20 04:58:00